Tracking 35274 objects as of 11-Sep-2026
HD Live streaming from Space Station
objects crossing your sky now

COSMOS 2421 DEB


COSMOS 2421 DEB is no longer on orbit


NORAD ID: 32835
Int'l Code: 2006-026CK
Launch date: June 25, 2006
Source: Commonwealth of Independent States (former USSR) (CIS)
Launch site: TYURATAM MISSILE AND SPACE COMPLEX (TTMTR)
Decay date: 2008-06-05

Note: This is SATELLITE DEBRIS
Your satellite tracking list
Your tracking list is empty




NASA's NSSDC Master Catalog

Two Line Element Set (TLE):
1 32835U 06026CK  08156.42660419  .02724441  85123-2  43546-2 0  9996
2 32835 064.8835 123.4193 0019979 262.2909 097.5731 16.05033312  5691
Source of the keplerian elements: AFSPC